Location: Ward Pound Ridge Reservation
(41.2500°N, 73.6000°W)
Time: 18:39:04
(UTC-04:00)

Tiangong 1 - Pass Details

Date: 15 October 2017
Orbit: 292 x 319 km, 42.8° (Epoch: 23 October)

Event Time Altitude Azimuth Distance (km) Brightness Sun altitude
Rises 18:40:38 0° 283° (WNW) 2,052 6.4 -5.9°
Reaches altitude 10° 18:42:38 10° 281° (W) 1,215 5.1 -6.3°
Maximum altitude 18:45:20 65° 198° (SSW) 348 1.0 -6.8°
Drops below altitude 10° 18:47:59 10° 116° (ESE) 1,196 3.0 -7.3°
Enters shadow 18:48:23 - 115° (ESE) 1,360 3.3 -7.4°
